Weather History for Gustavus, AK

Change the Weather History Date:

Friday, October 8, 2010

  Actual Average Record
Temperature  
Mean Temperature 48 °F -  
Max Temperature 53 °F 50 °F 57 °F (1984)
Min Temperature 44 °F 39 °F 24 °F (1957)
Degree Days  
Heating Degree Days 16    
Moisture  
Dew Point 40 °F    
Average Humidity 79    
Maximum Humidity 93    
Minimum Humidity 58    
Precipitation  
Precipitation 0.00 in - - ()
Sea Level Pressure  
Sea Level Pressure 29.75 in    
Wind  
Wind Speed 8 mph (SE)    
Max Wind Speed 15 mph    
Max Gust Speed 20 mph    
Visibility 10 miles    
Events      
Averages and records for this station are not official NWS values.
T = Trace of Precipitation, MM = Missing Value Source: NWS Daily Summary

Daily Weather History Graph

Daily Weather History Graph

Search for Another Location

Airport:

Trip Planner

Search our weather history database for the weather conditions in past years. The results will help you decide how hot, cold, wet, or windy it might be!

Date:

Astronomy

Oct. 08, 2010 Rise Set
Actual Time 7:23 AM AKDT 6:16 PM AKDT
Civil Twilight 6:43 AM AKDT 6:55 PM AKDT
Nautical Twilight 5:57 AM AKDT 7:41 PM AKDT
Astronomical Twilight 5:10 AM AKDT 8:28 PM AKDT
Moon 9:17 AM AKDT (10/8) 5:51 PM AKDT (10/8)
Length of Visible Light 12h 12m
Length of Day
10h 52m
New Moon, 2% of the Moon is Illuminated
Oct 8
New Moon
Oct 14
First Quarter
Oct 22
Full
Oct 30
Last Quarter
Nov 5
New

Hourly Weather History & Observations

Time (AKDT) Temp. Windchill Dew Point Humidity Pressure Visibility Wind Dir Wind Speed Gust Speed Precip Events Conditions
12:16 AM 44.6 °F - 41.0 °F 87% 29.62 in 10.0 mi Calm Calm - N/A   Overcast
12:36 AM 44.6 °F 43.1 °F 42.8 °F 93% 29.63 in 10.0 mi SE 3.5 mph - N/A   Overcast
12:56 AM 44.6 °F 41.4 °F 42.8 °F 93% 29.64 in 10.0 mi ESE 5.8 mph - N/A   Overcast
1:16 AM 44.6 °F 40.7 °F 41.0 °F 87% 29.66 in 10.0 mi ESE 6.9 mph - N/A   Overcast
1:36 AM 44.6 °F 39.7 °F 41.0 °F 87% 29.67 in 10.0 mi ESE 9.2 mph - N/A   Overcast
1:56 AM 44.6 °F 39.2 °F 41.0 °F 87% 29.68 in 10.0 mi ESE 10.4 mph - N/A   Mostly Cloudy
2:16 AM 44.6 °F 39.7 °F 39.2 °F 81% 29.69 in 10.0 mi SE 9.2 mph - N/A   Overcast
2:36 AM 44.6 °F 40.2 °F 39.2 °F 81% 29.70 in 10.0 mi SE 8.1 mph - N/A   Overcast
2:56 AM 44.6 °F 40.7 °F 39.2 °F 81% 29.72 in 10.0 mi SE 6.9 mph - N/A   Overcast
3:16 AM 44.6 °F 40.7 °F 39.2 °F 81% 29.72 in 10.0 mi SE 6.9 mph - N/A   Overcast
3:36 AM 44.6 °F 39.7 °F 39.2 °F 81% 29.73 in 10.0 mi SE 9.2 mph - N/A   Overcast
3:56 AM 44.6 °F 39.7 °F 39.2 °F 81% 29.74 in 10.0 mi SE 9.2 mph - N/A   Overcast
4:16 AM 44.6 °F 38.4 °F 39.2 °F 81% 29.75 in 10.0 mi SE 12.7 mph 18.4 mph N/A   Overcast
4:36 AM 44.6 °F 39.2 °F 39.2 °F 81% 29.75 in 10.0 mi ESE 10.4 mph - N/A   Overcast
4:56 AM 44.6 °F 38.8 °F 39.2 °F 81% 29.76 in 10.0 mi SSE 11.5 mph 19.6 mph N/A   Overcast
5:16 AM 44.6 °F 39.7 °F 39.2 °F 81% 29.78 in 10.0 mi SE 9.2 mph - N/A   Overcast
5:36 AM 44.6 °F 38.4 °F 39.2 °F 81% 29.78 in 10.0 mi SE 12.7 mph 18.4 mph N/A   Overcast
5:56 AM 44.6 °F 38.4 °F 41.0 °F 87% 29.78 in 10.0 mi SE 12.7 mph 19.6 mph N/A   Overcast
6:16 AM 44.6 °F 38.4 °F 39.2 °F 81% 29.79 in 10.0 mi SE 12.7 mph - N/A   Overcast
6:36 AM 44.6 °F 39.2 °F 39.2 °F 81% 29.79 in 9.0 mi SE 10.4 mph - N/A   Overcast
6:56 AM 44.6 °F 39.7 °F 39.2 °F 81% 29.80 in 10.0 mi SE 9.2 mph - N/A   Overcast
7:16 AM 44.6 °F 38.4 °F 39.2 °F 81% 29.80 in 10.0 mi SE 12.7 mph - N/A   Overcast
7:36 AM 46.4 °F 41.5 °F 39.2 °F 76% 29.80 in 10.0 mi SE 10.4 mph - N/A   Overcast
7:56 AM 46.4 °F 40.1 °F 39.2 °F 76% 29.81 in 10.0 mi SE 15.0 mph - N/A   Mostly Cloudy
8:16 AM 46.4 °F 40.7 °F 39.2 °F 76% 29.81 in 10.0 mi SE 12.7 mph - N/A   Mostly Cloudy
8:36 AM 46.4 °F 40.7 °F 41.0 °F 81% 29.82 in 10.0 mi SE 12.7 mph - N/A   Overcast
8:56 AM 46.4 °F 41.9 °F 42.8 °F 87% 29.82 in 10.0 mi SSE 9.2 mph - N/A   Overcast
9:16 AM 46.4 °F 42.4 °F 41.0 °F 81% 29.83 in 10.0 mi SSE 8.1 mph - N/A   Overcast
9:36 AM 46.4 °F 42.4 °F 41.0 °F 81% 29.83 in 10.0 mi SSE 8.1 mph - N/A   Overcast
9:56 AM 48.2 °F - 41.0 °F 76% 29.83 in 10.0 mi SE 9.2 mph - N/A   Overcast
10:16 AM 48.2 °F - 42.8 °F 82% 29.83 in 10.0 mi SE 9.2 mph - N/A   Overcast
10:36 AM 48.2 °F - 41.0 °F 76% 29.83 in 10.0 mi SE 6.9 mph - N/A   Mostly Cloudy
10:56 AM 50.0 °F - 41.0 °F 71% 29.83 in 10.0 mi SSE 9.2 mph - N/A   Overcast
11:16 AM 50.0 °F - 41.0 °F 71% 29.83 in 10.0 mi SE 8.1 mph - N/A   Mostly Cloudy
11:36 AM 51.8 °F - 41.0 °F 67% 29.83 in 10.0 mi SE 11.5 mph - N/A   Mostly Cloudy
11:56 AM 51.8 °F - 41.0 °F 67% 29.84 in 10.0 mi SE 11.5 mph - N/A   Clear
12:16 PM 51.8 °F - 41.0 °F 67% 29.83 in 10.0 mi SE 8.1 mph - N/A   Mostly Cloudy
12:36 PM 51.8 °F - 39.2 °F 62% 29.83 in 10.0 mi ESE 8.1 mph - N/A   Overcast
12:56 PM 51.8 °F - 39.2 °F 62% 29.83 in 10.0 mi SE 5.8 mph - N/A   Overcast
1:16 PM 51.8 °F - 39.2 °F 62% 29.82 in 10.0 mi SE 10.4 mph - N/A   Overcast
1:36 PM 51.8 °F - 39.2 °F 62% 29.81 in 10.0 mi SE 4.6 mph - N/A   Overcast
2:16 PM 51.8 °F - 39.2 °F 62% 29.79 in 10.0 mi SSE 3.5 mph - N/A   Overcast
3:16 PM 53.6 °F - 39.2 °F 58% 29.76 in 10.0 mi Calm Calm - N/A   Overcast
3:36 PM 51.8 °F - 44.6 °F 76% 29.75 in 10.0 mi North 6.9 mph - N/A   Overcast
3:56 PM 51.8 °F - 44.6 °F 76% 29.73 in 10.0 mi NNW 8.1 mph - N/A   Overcast
4:16 PM 50.0 °F - 44.6 °F 82% 29.72 in 10.0 mi NNW 8.1 mph - N/A   Overcast
4:36 PM 48.2 °F - 44.6 °F 87% 29.70 in 10.0 mi NW 8.1 mph - N/A   Mostly Cloudy
5:16 PM 46.4 °F 41.9 °F 42.8 °F 87% 29.67 in 10.0 mi NW 9.2 mph - N/A   Clear
5:36 PM 46.4 °F 41.5 °F 41.0 °F 81% 29.66 in 10.0 mi NNW 10.4 mph - N/A   Clear
5:56 PM 44.6 °F 39.2 °F 41.0 °F 87% 29.63 in 10.0 mi NNW 10.4 mph - N/A   Clear
6:16 PM 44.6 °F 39.2 °F 39.2 °F 81% 29.61 in 10.0 mi NNW 10.4 mph - N/A   Clear
6:36 PM 44.6 °F 39.7 °F 39.2 °F 81% 29.59 in 10.0 mi NW 9.2 mph - N/A   Clear
6:56 PM 44.6 °F 40.7 °F 39.2 °F 81% 29.56 in 10.0 mi NW 6.9 mph - N/A   Clear
7:16 PM 44.6 °F 38.8 °F 39.2 °F 81% 29.54 in 10.0 mi NNW 11.5 mph - N/A   Clear
7:56 PM 44.6 °F 41.4 °F 39.2 °F 81% 29.49 in 10.0 mi NW 5.8 mph - N/A   Clear
8:16 PM 44.6 °F 40.7 °F 39.2 °F 81% 29.47 in 10.0 mi North 6.9 mph - N/A   Clear
8:36 PM 44.6 °F 38.4 °F 39.2 °F 81% 29.44 in 10.0 mi NNW 12.7 mph - N/A   Clear
8:56 PM 44.6 °F 39.2 °F 39.2 °F 81% 29.42 in 10.0 mi NNW 10.4 mph - N/A   Clear
9:16 PM 44.6 °F 40.7 °F 37.4 °F 76% 29.39 in 10.0 mi NNW 6.9 mph - N/A   Clear
9:36 PM 44.6 °F 39.7 °F 37.4 °F 76% 29.37 in 10.0 mi NNW 9.2 mph - N/A   Scattered Clouds
9:56 PM 44.6 °F 40.2 °F 37.4 °F 76% 29.35 in 10.0 mi North 8.1 mph - N/A   Scattered Clouds
10:16 PM 44.6 °F 39.7 °F 37.4 °F 76% 29.32 in 10.0 mi North 9.2 mph - N/A   Partly Cloudy
10:36 PM 44.6 °F 38.1 °F 35.6 °F 71% 29.28 in 10.0 mi NNW 13.8 mph 17.3 mph N/A   Mostly Cloudy
10:56 PM 46.4 °F 43.5 °F 35.6 °F 66% 29.29 in 10.0 mi South 5.8 mph - N/A   Overcast
11:16 PM 44.6 °F - 35.6 °F 71% 29.28 in 10.0 mi Calm Calm - N/A   Overcast
11:36 PM 44.6 °F 41.4 °F 35.6 °F 71% 29.25 in 10.0 mi NW 5.8 mph - N/A   Overcast
11:56 PM 44.6 °F - 35.6 °F 71% 29.24 in 10.0 mi Calm Calm - N/A   Overcast